| time (UTC) | temp F | wind direction | speed knots | gust knots | rain 1hr in | rain 24hr in | rain mn in | humidity % | barometer mb |
| 20260507110914 | 69 | 255 | 4.3 | 9.6 | 0.00 | 0.00 | 0.00 | 58 | 1014.1 |
| 20260507100911 | 68 | 269 | 5.2 | 10.4 | 0.00 | 0.00 | 0.00 | 59 | 1014.2 |
| 20260507090909 | 70 | 174 | 7.0 | 11.3 | 0.00 | 0.00 | 0.00 | 53 | 1014.1 |
| 20260507080905 | 69 | 200 | 7.0 | 13.0 | 0.00 | 0.00 | 0.00 | 56 | 1013.3 |
| 20260507070900 | 68 | 139 | 4.3 | 10.4 | 0.00 | 0.00 | 0.00 | 57 | 1013.3 |
| 20260507060857 | 65 | 238 | 1.7 | 6.1 | 0.00 | 0.00 | 0.00 | 61 | 1013.1 |
| 20260507050853 | 63 | 352 | 0.9 | 3.5 | 0.00 | 0.00 | 0.00 | 65 | 1012.6 |
| 20260507040850 | 56 | 137 | 0.9 | 3.5 | 0.00 | 0.00 | 0.00 | 77 | 1013.1 |
| 20260507030846 | 55 | 149 | 0.0 | 0.0 | 0.00 | 0.00 | 0.00 | 78 | 1012.4 |
| 20260507020843 | 59 | 100 | 0.0 | 0.0 | 0.00 | 0.00 | 0.00 | 72 | 1012.3 |
| 20260507010840 | 58 | 134 | 0.0 | 0.0 | 0.00 | 0.00 | 0.00 | 73 | 1011.9 |
| 20260507000836 | 59 | 170 | 0.0 | 0.0 | 0.00 | 0.00 | 0.00 | 70 | 1011.7 |
| 20260506230833 | 63 | 161 | 0.0 | 0.9 | 0.00 | 0.00 | 0.00 | 62 | 1011.7 |
| 20260506220829 | 68 | 347 | 0.0 | 0.9 | 0.00 | 0.00 | 0.00 | 52 | 1011.6 |
| 20260506210826 | 70 | 221 | 2.6 | 4.3 | 0.00 | 0.00 | 0.00 | 49 | 1011.8 |
| 20260506200822 | 72 | 143 | 4.3 | 7.0 | 0.00 | 0.00 | 0.00 | 46 | 1011.5 |
| 20260506190819 | 72 | 118 | 4.3 | 6.1 | 0.00 | 0.00 | 0.00 | 46 | 1011.7 |
| 20260506140803 | 78 | 175 | 2.6 | 6.1 | 0.00 | 0.00 | 0.00 | 39 | 1011.5 |
| 20260506130800 | 78 | 62 | 5.2 | 12.2 | 0.00 | 0.00 | 0.00 | 38 | 1012.0 |
| 20260506120756 | 78 | 248 | 4.3 | 13.0 | 0.00 | 0.00 | 0.00 | 39 | 1012.6 |